• In Netherlands
  • List of Countries
  • For 7 days
  • Water Temperature
  • Satellite Maps
  • Weather Map
  • Weather Widgets
  • user-avatar
    Login

    Hourly Weather La Rioja

    Today, 28 June, Wednesday

    Time Temperature Precipitation Wind Pressure Humidity
    00:00 +10°C° 0 mm 2 mps 720 mmHg 75%
    01:00 +9°C° 0 mm 2 mps 720 mmHg 77%
    02:00 +9°C° 0 mm 2 mps 720 mmHg 78%
    03:00 +9°C° 0 mm 2 mps 719 mmHg 79%
    04:00 +8°C° 0 mm 2 mps 719 mmHg 80%
    05:00 +8°C° 0 mm 2 mps 719 mmHg 81%
    06:00 +8°C° 0 mm 2 mps 719 mmHg 80%
    07:00 +8°C° 0 mm 2 mps 719 mmHg 79%
    08:00 +9°C° 0 mm 1 mps 719 mmHg 78%
    09:00 +11°C° 0 mm 1 mps 719 mmHg 70%
    10:00 +13°C° 0 mm 1 mps 719 mmHg 63%
    11:00 +15°C° 0 mm 1 mps 719 mmHg 55%
    12:00 +16°C° 0 mm 2 mps 718 mmHg 52%
    13:00 +16°C° 0 mm 2 mps 718 mmHg 49%
    14:00 +17°C° 0 mm 2 mps 717 mmHg 47%
    15:00 +17°C° 0 mm 2 mps 717 mmHg 49%
    16:00 +16°C° 0 mm 2 mps 717 mmHg 52%
    17:00 +16°C° 0 mm 2 mps 716 mmHg 54%
    18:00 +14°C° 0 mm 2 mps 717 mmHg 60%
    19:00 +13°C° 0 mm 1 mps 717 mmHg 66%
    20:00 +12°C° 0 mm 1 mps 717 mmHg 71%
    21:00 +11°C° 0 mm 1 mps 717 mmHg 73%
    22:00 +11°C° 0 mm 1 mps 718 mmHg 75%
    23:00 +11°C° 0 mm 1 mps 718 mmHg 77%

    Tomorrow, 29 June, Thursday

    Time Temperature Precipitation Wind Pressure Humidity
    00:00 +9°C° 0 mm 2 mps 718 mmHg 78%
    01:00 +9°C° 0 mm 2 mps 717 mmHg 79%
    02:00 +9°C° 0 mm 2 mps 717 mmHg 80%
    03:00 +9°C° 0 mm 2 mps 717 mmHg 80%
    04:00 +9°C° 0 mm 2 mps 717 mmHg 79%
    05:00 +8°C° 0 mm 2 mps 717 mmHg 79%
    06:00 +9°C° 0 mm 2 mps 717 mmHg 77%
    07:00 +9°C° 0 mm 2 mps 718 mmHg 76%
    08:00 +9°C° 0 mm 2 mps 718 mmHg 74%
    09:00 +13°C° 0 mm 2 mps 718 mmHg 63%
    10:00 +15°C° 0 mm 1 mps 719 mmHg 51%
    11:00 +19°C° 0 mm 1 mps 719 mmHg 40%
    12:00 +19°C° 0 mm 2 mps 718 mmHg 37%
    13:00 +20°C° 0 mm 2 mps 717 mmHg 34%
    14:00 +21°C° 0 mm 2 mps 716 mmHg 31%
    15:00 +21°C° 0 mm 2 mps 716 mmHg 34%
    16:00 +20°C° 0 mm 2 mps 716 mmHg 38%
    17:00 +19°C° 0 mm 2 mps 716 mmHg 42%
    18:00 +18°C° 0 mm 1 mps 716 mmHg 48%
    19:00 +15°C° 0 mm 1 mps 717 mmHg 55%
    20:00 +13°C° 0 mm 1 mps 717 mmHg 62%
    21:00 +13°C° 0 mm 1 mps 717 mmHg 64%
    22:00 +13°C° 0 mm 1 mps 717 mmHg 66%
    23:00 +12°C° 0 mm 1 mps 718 mmHg 68%

    Day after tomorrow, 30 June, Friday

    Time Temperature Precipitation Wind Pressure Humidity
    00:00 +12°C° 0 mm 1 mps 717 mmHg 69%
    01:00 +11°C° 0 mm 1 mps 717 mmHg 70%
    02:00 +11°C° 0 mm 1 mps 717 mmHg 71%
    03:00 +11°C° 0 mm 1 mps 717 mmHg 71%
    04:00 +11°C° 0 mm 1 mps 716 mmHg 72%
    05:00 +10°C° 0 mm 1 mps 716 mmHg 72%
    06:00 +10°C° 0 mm 1 mps 717 mmHg 72%
    07:00 +10°C° 0 mm 1 mps 718 mmHg 72%
    08:00 +10°C° 0 mm 1 mps 718 mmHg 72%
    09:00 +13°C° 0 mm 1 mps 719 mmHg 63%
    10:00 +16°C° 0 mm 1 mps 720 mmHg 54%
    11:00 +20°C° 0 mm 1 mps 720 mmHg 45%
    12:00 +20°C° 0 mm 2 mps 720 mmHg 42%
    13:00 +21°C° 0 mm 2 mps 719 mmHg 39%
    14:00 +23°C° 0 mm 2 mps 719 mmHg 36%
    15:00 +21°C° 0 mm 2 mps 719 mmHg 39%
    16:00 +20°C° 0 mm 2 mps 719 mmHg 43%
    17:00 +19°C° 0 mm 2 mps 719 mmHg 46%
    18:00 +19°C° 0 mm 1 mps 719 mmHg 53%
    19:00 +16°C° 0 mm 1 mps 720 mmHg 60%
    20:00 +14°C° 0 mm 1 mps 720 mmHg 67%
    21:00 +14°C° 0 mm 1 mps 721 mmHg 69%
    22:00 +13°C° 0 mm 1 mps 721 mmHg 72%
    23:00 +13°C° 0 mm 1 mps 721 mmHg 74%

    1 July, Saturday

    Time Temperature Precipitation Wind Pressure Humidity
    00:00 +12°C° 0 mm 1 mps 721 mmHg 75%
    01:00 +12°C° 0 mm 1 mps 721 mmHg 77%
    02:00 +11°C° 0 mm 1 mps 721 mmHg 78%
    03:00 +11°C° 0 mm 1 mps 721 mmHg 79%
    04:00 +11°C° 0 mm 1 mps 721 mmHg 79%
    05:00 +11°C° 0 mm 1 mps 721 mmHg 80%
    06:00 +11°C° 0 mm 1 mps 721 mmHg 80%
    07:00 +11°C° 0 mm 1 mps 721 mmHg 80%
    08:00 +11°C° 0 mm 1 mps 722 mmHg 79%
    09:00 +13°C° 0 mm 1 mps 722 mmHg 70%
    10:00 +16°C° 0 mm 2 mps 722 mmHg 61%
    11:00 +19°C° 0 mm 2 mps 722 mmHg 52%
    12:00 +19°C° 0 mm 2 mps 721 mmHg 49%
    13:00 +20°C° 0 mm 2 mps 721 mmHg 47%
    14:00 +21°C° 0 mm 3 mps 720 mmHg 44%
    15:00 +21°C° 0 mm 2 mps 720 mmHg 48%
    16:00 +20°C° 0 mm 2 mps 720 mmHg 52%
    17:00 +19°C° 0 mm 2 mps 720 mmHg 56%
    18:00 +18°C° 0 mm 2 mps 720 mmHg 62%
    19:00 +17°C° 0 mm 2 mps 720 mmHg 68%
    20:00 +15°C° 0 mm 2 mps 721 mmHg 75%
    21:00 +15°C° 0 mm 2 mps 721 mmHg 76%
    22:00 +14°C° 0 mm 2 mps 721 mmHg 77%
    23:00 +14°C° 0 mm 2 mps 721 mmHg 78%

    2 July, Sunday

    Time Temperature Precipitation Wind Pressure Humidity
    00:00 +14°C° 0 mm 2 mps 720 mmHg 80%
    01:00 +13°C° 0 mm 2 mps 720 mmHg 81%
    02:00 +13°C° 0 mm 2 mps 720 mmHg 82%
    03:00 +13°C° 0 mm 2 mps 720 mmHg 83%
    04:00 +12°C° 0 mm 2 mps 720 mmHg 84%
    05:00 +12°C° 0 mm 2 mps 720 mmHg 85%
    06:00 +12°C° 0 mm 2 mps 720 mmHg 84%
    07:00 +12°C° 0 mm 2 mps 720 mmHg 83%
    08:00 +12°C° 0 mm 2 mps 720 mmHg 81%
    09:00 +15°C° 0 mm 2 mps 721 mmHg 72%
    10:00 +17°C° 0 mm 2 mps 721 mmHg 63%
    11:00 +19°C° 0 mm 3 mps 721 mmHg 54%
    12:00 +20°C° 0 mm 3 mps 720 mmHg 51%
    13:00 +21°C° 0 mm 3 mps 719 mmHg 48%
    14:00 +22°C° 0 mm 3 mps 718 mmHg 44%
    15:00 +21°C° 0 mm 3 mps 718 mmHg 48%
    16:00 +21°C° 0 mm 3 mps 718 mmHg 51%
    17:00 +20°C° 0 mm 2 mps 717 mmHg 55%
    18:00 +19°C° 0 mm 2 mps 718 mmHg 62%
    19:00 +17°C° 0 mm 2 mps 718 mmHg 69%
    20:00 +16°C° 0 mm 2 mps 718 mmHg 75%
    21:00 +16°C° 0 mm 2 mps 718 mmHg 77%
    22:00 +15°C° 0 mm 2 mps 718 mmHg 78%
    23:00 +15°C° 0 mm 2 mps 717 mmHg 80%

    3 July, Monday

    Time Temperature Precipitation Wind Pressure Humidity
    00:00 +14°C° 0 mm 2 mps 717 mmHg 80%
    01:00 +14°C° 0 mm 2 mps 716 mmHg 81%
    02:00 +14°C° 0 mm 2 mps 716 mmHg 81%
    03:00 +14°C° 0 mm 2 mps 716 mmHg 81%
    04:00 +13°C° 0 mm 2 mps 715 mmHg 82%
    05:00 +13°C° 0 mm 2 mps 715 mmHg 82%
    06:00 +13°C° 0 mm 2 mps 715 mmHg 81%
    07:00 +14°C° 0 mm 2 mps 715 mmHg 80%
    08:00 +14°C° 0 mm 2 mps 715 mmHg 79%
    09:00 +16°C° 0 mm 2 mps 715 mmHg 69%
    10:00 +19°C° 0 mm 2 mps 715 mmHg 59%
    11:00 +23°C° 0 mm 2 mps 715 mmHg 49%
    12:00 +24°C° 0 mm 3 mps 714 mmHg 44%
    13:00 +25°C° 0 mm 3 mps 713 mmHg 38%
    14:00 +27°C° 0 mm 3 mps 712 mmHg 33%
    15:00 +26°C° 0 mm 3 mps 712 mmHg 35%
    16:00 +25°C° 0 mm 3 mps 711 mmHg 37%
    17:00 +25°C° 0 mm 3 mps 711 mmHg 39%
    18:00 +22°C° 0 mm 3 mps 711 mmHg 46%
    19:00 +20°C° 0 mm 3 mps 711 mmHg 53%
    20:00 +19°C° 0 mm 3 mps 711 mmHg 59%
    21:00 +18°C° 0 mm 3 mps 711 mmHg 61%
    22:00 +18°C° 0 mm 2 mps 711 mmHg 64%
    23:00 +17°C° 0 mm 2 mps 711 mmHg 66%
    Show more